FREGAT R/B

Satellite information

Favourite Embed

Satellite Type and Status

ROCKET BODYIN ORBIT

Key statistics

Satellite FREGAT R/B at a glance.

Uptime

601

Days in orbit

Revolutions

≈ 14.5

Per day

Orbit

LEO

Low Earth Orbit

Inclination

89.0

Latest

Satellite identification and parameters

Extended collection of information and parameters for FREGAT R/B.

Object identification

Identified? True

Debris? False

Object name: FREGAT R/B

International designator: 2024-039W

Object number (NORAD): 59073

Object ID (CCSDS): 59073

Country: COMMONWEALTH OF INDEPENDENT STATES (CIS)

Current information (Y/N): Y

RCS size: LARGE

Orbital parameters

Period: 99.413 minutes

Inclination: 88.9901 deg

SMA: 7108.695 km

Apoapsis: 756.089 km

Periapsis: 705.031 km

RAAN: 312.6479 deg

Eccentricy: 0.0035913

Argument of periapsis: 43.8458 deg

Mean anomaly: 316.5588 deg

Mean motion: 14.48498136 rev/day

Mean motion (dot): 0.00000387 rev/day2

B* drag term: 0.000098068 1/REarth

Two-line elements (TLE)

Creation date: Oct. 22, 2025, 12:16 a.m.

Reference frame: TEME

Reference center: EARTH

Epoch: Oct. 21, 2025, 2:07 p.m. UTC

TLE line 0: 0 FREGAT R/B

TLE line 1: 1 59073U 24039W 25294.58860076 .00000387 00000-0 98068-4 0 9997

TLE line 2: 2 59073 88.9901 312.6479 0035913 43.8458 316.5588 14.48498136 86868

Live tracking on map

Real-time ground track for satellite FREGAT R/B.

In-orbit conjunctions

A list of the most updated potential collisions computed for object FREGAT R/B.

Target Orbit TCA Probability of collision Miss distance Type
CZ-6A DEB SSO 2025-06-02 17:53:36 0.0001012752 550.0 (m) DEBRIS
FENGYUN 1C DEB SSO 2025-04-09 18:10:40 0.0001371871 230.0 (m) DEBRIS
PEGASUS DEB LEO 2025-03-01 15:26:37 0.0001157123 392.0 (m) DEBRIS
CZ-6A DEB LEO 2025-02-04 08:42:05 0.0001676458 530.0 (m) DEBRIS
CZ-4 DEB SSO 2024-08-14 05:00:36 0.0002715486 390.0 (m) DEBRIS

Associated space launch

Meteor-M satellites are a new generation of Russian meteorological satellites. Hitchhiking Payloads: SITRO-AIS 13-28, Zorkiy-2M-2, Pars 1 (Iran).

FREGAT R/B was lifted into orbit during the mission ‘Soyuz 2.1b/Fregat-M | Meteor-M No.2-4 & others’, on board a Soyuz 2.1b/Fregat-M space rocket.

The launch took place on Feb. 29, 2024, 5:43 a.m. from Cosmodrome Site 1S.

For more information about the launch, click the button.

Launch to space Soyuz 2.1b/Fregat-M | Meteor-M No.2-4 & others
Soyuz 2.1b/Fregat-M | Meteor-M No.2-4 & others

Agency: Russian Federal Space Agency (ROSCOSMOS)

Status: Launch Successful

Launch date: Feb. 29, 2024, 5:43 a.m. UTC

Rocket: Soyuz 2.1b/Fregat-M

Launch pad: Cosmodrome Site 1S

Location: Vostochny Cosmodrome, Siberia, Russian Federation

...

Latest news about this satellite

There are no fresh news available about this satellite. Check back as we update our databases every day.


Newsletter sign-up

Weekly statistics, charts and insights to help you stay on top of the space industry.